TimeCST,TemperatureF,Dew PointF,Humidity,Sea Level PressureIn,VisibilityMPH,Wind Direction,Wind SpeedMPH,Gust SpeedMPH,PrecipitationIn,Events,Conditions,WindDirDegrees,DateUTC
12:55 AM,22.1,19.2,89,30.16,10.0,SSE,8.1,-,N/A,,Clear,160,2013-01-07 06:55:00
1:55 AM,25.9,20.1,79,30.14,10.0,SSE,8.1,-,N/A,,Clear,160,2013-01-07 07:55:00
2:55 AM,25.2,19.9,81,30.14,10.0,SSE,4.6,-,N/A,,Clear,160,2013-01-07 08:55:00
3:55 AM,25.3,20.3,81,30.11,10.0,SSE,11.5,-,N/A,,Clear,150,2013-01-07 09:55:00
4:55 AM,25.3,20.3,81,30.09,10.0,SSE,5.8,-,N/A,,Clear,160,2013-01-07 10:55:00
5:55 AM,28.2,21.2,75,30.05,10.0,SSE,12.7,-,N/A,,Clear,160,2013-01-07 11:55:00
6:55 AM,25.7,20.3,80,30.07,10.0,NNW,3.5,-,N/A,,Clear,330,2013-01-07 12:55:00
7:55 AM,24.1,19.0,81,30.08,10.0,SE,5.8,-,N/A,,Clear,130,2013-01-07 13:55:00
8:55 AM,28.6,21.6,75,30.08,10.0,SSE,6.9,-,N/A,,Clear,150,2013-01-07 14:55:00
9:55 AM,29.5,23.9,80,30.08,10.0,Calm,Calm,-,N/A,,Clear,0,2013-01-07 15:55:00
10:55 AM,32.7,25.9,76,30.09,10.0,Calm,Calm,-,N/A,,Clear,0,2013-01-07 16:55:00
11:55 AM,39.7,27.1,61,30.05,10.0,SW,10.4,-,N/A,,Clear,220,2013-01-07 17:55:00
12:55 PM,41.0,27.5,59,30.03,10.0,SSW,9.2,-,N/A,,Partly Cloudy,210,2013-01-07 18:55:00
1:55 PM,40.6,27.5,59,30.01,10.0,WSW,9.2,-,N/A,,Partly Cloudy,240,2013-01-07 19:55:00
2:55 PM,40.1,28.2,63,30.02,10.0,SW,8.1,-,N/A,,Clear,220,2013-01-07 20:55:00
3:55 PM,37.9,28.8,70,30.03,10.0,WNW,5.8,-,N/A,,Clear,290,2013-01-07 21:55:00
4:55 PM,35.2,28.4,76,30.01,10.0,Calm,Calm,-,N/A,,Clear,0,2013-01-07 22:55:00
5:55 PM,30.7,27.7,88,30.02,10.0,Calm,Calm,-,N/A,,Clear,0,2013-01-07 23:55:00
6:55 PM,28.4,26.6,93,30.04,10.0,Calm,Calm,-,N/A,,Clear,0,2013-01-08 00:55:00
7:55 PM,27.3,25.7,94,30.03,10.0,Calm,Calm,-,N/A,,Clear,0,2013-01-08 01:55:00
8:55 PM,24.4,24.1,99,30.02,10.0,Calm,Calm,-,N/A,,Clear,0,2013-01-08 02:55:00
9:55 PM,22.1,21.6,98,30.01,10.0,Calm,Calm,-,N/A,,Clear,0,2013-01-08 03:55:00
10:55 PM,22.3,21.9,99,30.00,4.0,Calm,Calm,-,N/A,,Clear,0,2013-01-08 04:55:00
10:56 PM,23.0,23.0,100,30.00,2.5,Calm,Calm,-,N/A,,Clear,0,2013-01-08 04:56:00
10:57 PM,23.0,23.0,100,29.99,1.8,Calm,Calm,-,N/A,,Clear,0,2013-01-08 04:57:00
11:26 PM,19.4,19.4,100,29.99,0.5,Calm,Calm,-,N/A,Fog,Light Freezing Fog,0,2013-01-08 05:26:00
11:36 PM,19.4,19.4,100,29.94,10.0,Calm,Calm,-,N/A,,Clear,0,2013-01-08 05:36:00
11:55 PM,19.4,19.4,100,30.06,10.0,Calm,Calm,-,N/A,,Clear,0,2013-01-08 05:55:00